Location: La Chapelle
(48.3135°N, 1.3085°W)
Time: 03:28:52
(UTC+00:00)

OBJECT-B - Pass Details

Date: 03 March 2021
Orbit: 414 x 427 km, 97.0° (Epoch: 11 April)

Event Time Altitude Azimuth Distance (km) Brightness Sun altitude
Exits shadow 19:38:15 44° 42° (NE) 598 1.2 -18.3°
Drops below altitude 10° 19:40:54 10° 358° (N) 1,515 3.7 -18.7°
Sets 19:42:56 0° 353° (N) 2,382 4.8 -19.1°
